Mason City, IA

2:28 AM CDT on August 24, 2017 (GMT -0500)
Mason City Municipal

Weather History for KMCW - February, 2013

Change the Weather History Date:

Sunday, February 17, 2013

  Actual Average Record
Temperature  
Mean Temperature 26 °F 21 °F  
Max Temperature 36 °F 30 °F 66 °F (1981)
Min Temperature 16 °F 13 °F -20 °F (1958)
Degree Days  
Heating Degree Days 39 44  
Month to date heating degree days 724 785  
Since 1 July heating degree days 5046 5396  
Cooling Degree Days 0 0  
Month to date cooling degree days 0 0  
Year to date cooling degree days 0 0  
Moisture  
Dew Point 18 °F    
Average Humidity 74    
Maximum Humidity 88    
Minimum Humidity 59    
Precipitation  
Precipitation 0.00 in 0.03 in 0.60 in (1904)
Month to date precipitation 0.62 0.55  
Year to date precipitation 1.09 1.37  
Snow  
Snow 0.00 in 0.30 in 6.00 in (1904)
Month to date snowfall 2.2 5.1  
Since 1 July snowfall 15.4 29.9  
Snow Depth 0.00 in    
Sea Level Pressure  
Sea Level Pressure 29.94 in    
Wind  
Wind Speed 16 mph (SE)    
Max Wind Speed 29 mph    
Max Gust Speed 36 mph    
Visibility 10 miles    
Events      
T = Trace of Precipitation, MM = Missing Value Source: NWS Daily Summary

Daily Weather History Graph

Daily Weather History Graph

Search for Another Location

Airport or City:

Trip Planner

Search our weather history database for the weather conditions in past years. The results will help you decide how hot, cold, wet, or windy it might be!

Date:

Astronomy

Feb. 17, 2013 Rise Set
Actual Time 7:07 AM CST 5:47 PM CST
Civil Twilight 6:38 AM CST 6:16 PM CST
Nautical Twilight 6:05 AM CST 6:49 PM CST
Astronomical Twilight 5:32 AM CST 7:22 PM CST
Moon 10:48 AM CST (2/17) 12:56 AM CST (2/17)
Length of Visible Light 11h 37m
Length of Day
10h 39m
Waxing Crescent, 49% of the Moon is Illuminated
Feb 17
Waxing Crescent
Feb 17
First Quarter
Feb 25
Full
Mar 4
Last Quarter
Mar 11
New

Hourly Weather History & Observations

Time (CST) Temp. Windchill Dew Point Humidity Pressure Visibility Wind Dir Wind Speed Gust Speed Precip Events Conditions
12:53 AM 18.0 °F 8.7 °F 12.9 °F 81% 30.13 in 10.0 mi SE 6.9 mph - N/A   Clear
1:53 AM 17.1 °F 5.8 °F 12.0 °F 81% 30.13 in 10.0 mi SE 9.2 mph - N/A   Clear
2:53 AM 16.0 °F 5.3 °F 12.0 °F 84% 30.12 in 10.0 mi SE 8.1 mph - N/A   Clear
3:53 AM 16.0 °F 4.4 °F 12.0 °F 84% 30.11 in 10.0 mi SE 9.2 mph - N/A   Clear
4:53 AM 16.0 °F 3.6 °F 12.0 °F 84% 30.11 in 10.0 mi SSE 10.4 mph - N/A   Clear
5:53 AM 16.0 °F 2.9 °F 12.0 °F 84% 30.09 in 10.0 mi SE 11.5 mph - N/A   Clear
6:53 AM 15.8 °F 3.4 °F 10.4 °F 79% 30.03 in 9.0 mi SE 10.4 mph - N/A   Clear
7:53 AM 17.1 °F 2.5 °F 12.0 °F 81% 30.06 in 9.0 mi SSE 15.0 mph - N/A   Clear
8:53 AM 18.0 °F 4.8 °F 12.9 °F 81% 30.06 in 9.0 mi SSE 12.7 mph - N/A   Clear
9:53 AM 21.2 °F 7.8 °F 15.8 °F 80% 29.99 in 10.0 mi SSE 15.0 mph - N/A   Clear
10:53 AM 27.0 °F 15.2 °F 18.0 °F 69% 30.02 in 10.0 mi SSE 15.0 mph 24.2 mph N/A   Clear
11:53 AM 30.0 °F 17.2 °F 19.9 °F 66% 29.99 in 10.0 mi SSE 20.7 mph 27.6 mph N/A   Clear
12:53 PM 32.0 °F 20.1 °F 21.0 °F 64% 29.94 in 10.0 mi SSE 19.6 mph 31.1 mph N/A   Clear
1:53 PM 34.0 °F 21.5 °F 21.9 °F 61% 29.90 in 10.0 mi SSE 24.2 mph 31.1 mph N/A   Clear
2:53 PM 35.1 °F 23.3 °F 23.0 °F 61% 29.86 in 10.0 mi SSE 23.0 mph 33.4 mph N/A   Clear
3:53 PM 35.1 °F 23.5 °F 24.1 °F 64% 29.84 in 10.0 mi SE 21.9 mph 29.9 mph N/A   Clear
4:53 PM 34.0 °F 22.4 °F 24.1 °F 67% 29.82 in 10.0 mi SE 20.7 mph 27.6 mph N/A   Clear
5:53 PM 33.1 °F 21.9 °F 24.1 °F 70% 29.80 in 10.0 mi SE 18.4 mph - N/A   Clear
6:53 PM 32.0 °F 19.2 °F 24.1 °F 73% 29.78 in 10.0 mi SE 23.0 mph 29.9 mph N/A   Clear
7:53 PM 32.0 °F 19.5 °F 23.0 °F 69% 29.76 in 10.0 mi SE 21.9 mph 29.9 mph N/A   Clear
8:53 PM 32.0 °F 19.8 °F 23.0 °F 69% 29.74 in 10.0 mi SSE 20.7 mph 27.6 mph N/A   Clear
9:53 PM 30.9 °F 18.7 °F 23.0 °F 72% 29.72 in 10.0 mi SSE 19.6 mph 27.6 mph N/A   Clear
11:53 PM 30.9 °F 19.8 °F 23.0 °F 72% 29.67 in 10.0 mi SSE 16.1 mph 25.3 mph N/A   Clear